Location: Biltmore Gardens
(41.6070°N, 83.4666°W)
Time: 15:11:41
(UTC+00:00)

Cosmos 1606 - Pass Details

Date: 14 July 2020
Orbit: 504 x 527 km, 82.5° (Epoch: 12 August)

Event Time Altitude Azimuth Distance (km) Brightness Sun altitude
Rises 03:07:37 0° 6° (N) 2,672 7.1 -17.6°
Reaches altitude 10° 03:10:10 10° 23° (NNE) 1,778 5.8 -17.9°
Maximum altitude 03:13:13 21° 74° (ENE) 1,210 4.4 -18.2°
Enters shadow 03:13:32 21° 81° (E) 1,218 4.3 -18.3°
